Zurück zum Katalog

FENGYUN 1C DEB

AktivPO
NORAD 31000·DEBRIS·🇨🇳 China

Gestartet May 10, 1999 von Taiyuan Satellite Launch Center

Loading…

Nächste Überflüge (nächste 24 Stunden)

TLE

AlterndSource: Space-Track

Epoche: Sep 6, 2026, 22:37 UTC

1 31000U 99025BCS 26249.94274948  .00000625  00000-0  32851-3 0  9994
2 31000  97.5604 241.0576 0164024   2.2569  25.4295 14.10182907737369

Verfolge FENGYUN 1C DEB in Echtzeit mit AllMySat

Download on the App Store